TimeEDT,TemperatureF,Dew PointF,Humidity,Sea Level PressureIn,VisibilityMPH,Wind Direction,Wind SpeedMPH,Gust SpeedMPH,PrecipitationIn,Events,Conditions,WindDirDegrees,DateUTC
12:15 AM,55.4,51.8,88,29.97,0.5,Calm,Calm,-,N/A,Fog,Fog,0,2013-10-02 04:15:00
12:35 AM,55.4,51.8,88,29.97,0.2,Calm,Calm,-,N/A,Fog,Fog,0,2013-10-02 04:35:00
12:55 AM,53.6,51.8,94,29.97,0.2,Calm,Calm,-,N/A,Fog,Fog,0,2013-10-02 04:55:00
1:15 AM,53.6,51.8,94,29.97,0.2,Calm,Calm,-,N/A,Fog,Fog,0,2013-10-02 05:15:00
1:35 AM,53.6,50.0,88,29.98,1.0,Calm,Calm,-,N/A,,Overcast,0,2013-10-02 05:35:00
1:55 AM,51.8,50.0,94,29.98,0.5,Calm,Calm,-,N/A,Fog,Fog,0,2013-10-02 05:55:00
2:15 AM,51.8,50.0,94,29.97,0.2,Calm,Calm,-,N/A,Fog,Fog,0,2013-10-02 06:15:00
2:35 AM,51.8,50.0,94,29.97,1.0,Calm,Calm,-,N/A,,Overcast,0,2013-10-02 06:35:00
2:55 AM,51.8,48.2,88,29.97,0.2,Calm,Calm,-,N/A,Fog,Fog,0,2013-10-02 06:55:00
3:15 AM,50.0,48.2,94,29.97,0.5,Calm,Calm,-,N/A,Fog,Fog,0,2013-10-02 07:15:00
3:35 AM,51.8,48.2,88,29.97,5.0,Calm,Calm,-,N/A,,Overcast,0,2013-10-02 07:35:00
3:55 AM,50.0,48.2,94,29.97,5.0,Calm,Calm,-,N/A,,Scattered Clouds,0,2013-10-02 07:55:00
4:15 AM,50.0,48.2,94,29.97,0.5,Calm,Calm,-,N/A,Fog,Fog,0,2013-10-02 08:15:00
4:35 AM,50.0,48.2,94,29.97,0.5,Calm,Calm,-,N/A,Fog,Fog,0,2013-10-02 08:35:00
4:55 AM,50.0,48.2,94,29.98,0.5,Calm,Calm,-,N/A,Fog,Fog,0,2013-10-02 08:55:00
5:15 AM,50.0,46.4,87,29.98,7.0,Calm,Calm,-,N/A,,Scattered Clouds,0,2013-10-02 09:15:00
5:35 AM,50.0,46.4,87,29.98,7.0,Calm,Calm,-,N/A,,Scattered Clouds,0,2013-10-02 09:35:00
5:55 AM,50.0,46.4,87,29.98,5.0,Calm,Calm,-,N/A,,Mostly Cloudy,0,2013-10-02 09:55:00
6:15 AM,48.2,46.4,93,29.99,10.0,Calm,Calm,-,N/A,,Scattered Clouds,0,2013-10-02 10:15:00
6:35 AM,48.2,46.4,93,29.99,0.5,Calm,Calm,-,N/A,Fog,Fog,0,2013-10-02 10:35:00
6:45 AM,48.2,46.4,93,29.99,7.0,Calm,Calm,-,N/A,,Clear,0,2013-10-02 10:45:00
7:45 AM,50.0,50.0,100,29.99,10.0,Calm,Calm,-,N/A,,Clear,0,2013-10-02 11:45:00
8:45 AM,59.0,55.4,88,30.00,10.0,Calm,Calm,-,N/A,,Clear,0,2013-10-02 12:45:00
10:45 AM,75.2,59.0,57,30.00,10.0,NW,9.2,15.0,N/A,,Clear,310,2013-10-02 14:45:00
11:45 AM,75.2,60.8,61,30.00,10.0,NNW,5.8,17.3,N/A,,Clear,330,2013-10-02 15:45:00
12:45 PM,78.8,59.0,51,29.97,10.0,WNW,10.4,-,N/A,,Partly Cloudy,290,2013-10-02 16:45:00
1:45 PM,80.6,60.8,51,29.95,10.0,NW,9.2,-,N/A,,Partly Cloudy,310,2013-10-02 17:45:00
2:45 PM,80.6,59.0,48,29.94,10.0,West,12.7,21.9,N/A,,Partly Cloudy,280,2013-10-02 18:45:00
3:45 PM,82.4,60.8,48,29.93,15.0,WNW,11.5,17.3,N/A,,Partly Cloudy,290,2013-10-02 19:45:00
4:45 PM,82.4,60.8,48,29.93,10.0,NW,12.7,19.6,N/A,,Scattered Clouds,310,2013-10-02 20:45:00
5:45 PM,80.6,60.8,51,29.93,10.0,WNW,6.9,-,N/A,,Partly Cloudy,290,2013-10-02 21:45:00
7:45 PM,68.0,62.6,83,29.97,7.0,Calm,Calm,-,N/A,,Clear,0,2013-10-02 23:45:00
8:45 PM,64.4,60.8,88,29.99,10.0,Calm,Calm,-,N/A,,Clear,0,2013-10-03 00:45:00
9:45 PM,62.6,60.8,94,30.00,10.0,Calm,Calm,-,N/A,,Clear,0,2013-10-03 01:45:00
10:55 PM,60.8,57.2,88,30.02,7.0,Calm,Calm,-,N/A,,Clear,0,2013-10-03 02:55:00
11:15 PM,59.0,55.4,88,30.02,3.0,Calm,Calm,-,N/A,,Clear,0,2013-10-03 03:15:00
11:35 PM,59.0,55.4,88,30.03,0.2,Calm,Calm,-,N/A,Fog,Fog,0,2013-10-03 03:35:00
11:55 PM,59.0,55.4,88,30.03,0.5,Calm,Calm,-,N/A,Fog,Fog,0,2013-10-03 03:55:00